This demonstration page uses our WeatherBlox Daily Observations layout. Learn more.

Left ArrowRight Arrow

39.08367, -84.50855

Hourly Observations for December 14, 2016

Temp ( °F °C ) Dew Point ( °F °C ) Humidity (%) Winds ( mph kmh ) Pressure ( in mb ) Visibility ( mi km ) Precip ( " mm )
12:04 am 00:04 Partly Cloudy 27 -2.8 22 -5.6 81 81 NNW 7 11 30.27 1025 7 11 0.00 0.00
12:27 am 00:27 Mostly Cloudy 27 -2.8 22 -5.6 81 81 NNW 10 17 30.27 1025 7 11 0.00 0.00
12:53 am 00:53 Cloudy 25 -3.9 21 -6.1 85 85 NNW 14 22 30.26 1025 7 11 0.00 0.00
1:53 am 01:53 Mostly Clear 22 -5.6 18 -7.8 85 85 NNW 9 15 30.28 1025 7 11 0.00 0.00
2:44 am 02:44 Mostly Cloudy 21 -6 18 -8 86 86 NNW 6 9 30.30 1026 7 11 0.00 0.00
2:53 am 02:53 Mostly Cloudy 22 -5.6 17 -8.3 82 82 NNW 9 15 30.29 1026 8 13 0.00 0.00
3:05 am 03:05 Partly Cloudy 21 -6.1 17 -8.3 85 85 NW 7 11 30.33 1027 8 13 0.00 0.00
3:53 am 03:53 Clear 20 -6.7 14 -10 78 78 NNE 7 11 30.30 1026 10 16 0.00 0.00
4:53 am 04:53 Clear 18 -7.8 14 -10 84 84 NNW 5 7 30.30 1026 8 13 0.00 0.00
5:53 am 05:53 Mostly Clear 18 -7.8 14 -10 84 84 N 5 7 30.30 1026 7 11 0.00 0.00
6:53 am 06:53 Clear with Mist and Fog 17 -8.3 14 -10 88 88 Calm 30.31 1026 5 8 0.00 0.00
7:53 am 07:53 Sunny with Mist and Fog 16 -8.9 14 -10 92 92 Calm 30.31 1027 6 10 0.00 0.00
8:53 am 08:53 Sunny with Mist and Fog 18 -7.8 15 -9.4 88 88 ENE 3 6 30.33 1027 4 6 0.00 0.00
9:53 am 09:53 Sunny with Mist and Fog 20 -6.7 16 -8.9 85 85 Calm 30.32 1027 4 6 0.00 0.00
10:53 am 10:53 Hazy 23 -5 18 -7.8 81 81 Calm 30.32 1027 5 8 0.00 0.00
11:53 am 11:53 Hazy 26 -3.3 19 -7.2 75 75 Calm 30.28 1025 6 10 0.00 0.00
12:53 pm 12:53 Mostly Sunny 28 -2.2 18 -7.8 66 66 SW 5 7 30.24 1024 9 14 0.00 0.00
1:53 pm 13:53 Mostly Sunny 29 -1.7 14 -10 54 54 SW 5 7 30.21 1023 10 16 0.00 0.00
2:53 pm 14:53 Sunny 30 -1.1 15 -9.4 54 54 W 10 17 30.20 1023 10 16 0.00 0.00
3:53 pm 15:53 Mostly Cloudy 29 -1.7 15 -9.4 56 56 WNW 6 9 30.19 1023 10 16 0.00 0.00
4:53 pm 16:53 Cloudy 29 -1.7 15 -9.4 56 56 W 9 15 30.20 1023 10 16 0.00 0.00
5:53 pm 17:53 Cloudy 27 -2.8 2 -16.7 34 34 W 10 17 30.20 1023 10 16 0.00 0.00
6:53 pm 18:53 Clear 25 -3.9 7 -13.9 46 46 WSW 9 15 30.20 1023 10 16 0.00 0.00
7:53 pm 19:53 Clear 23 -5 8 -13.3 53 53 WSW 7 11 30.20 1023 10 16 0.00 0.00
8:53 pm 20:53 Clear 24 -4.4 11 -11.7 57 57 W 14 22 30.22 1024 10 16 0.00 0.00
9:53 pm 21:53 Clear 22 -5.6 10 -12.2 60 60 WNW 12 19 30.24 1024 10 16 0.00 0.00
10:53 pm 22:53 Clear 20 -6.7 8 -13.3 60 60 WNW 10 17 30.27 1025 10 16 0.00 0.00
11:53 pm 23:53 Clear 19 -7.2 5 -15 54 54 NW 8 13 30.29 1026 10 16 0.00 0.00

Powered by AerisWeather